This is the latest recevied weather packets stored in our database for station/object K4IR. If no packets are shown the sender has not sent any weather packets the latest 10 day(s).
| Time | Temp. | Humidity | Pressure | Rain* | Wind** | Luminosity | Snow |
|---|---|---|---|---|---|---|---|
| 1787920239 | 23.89° C | 99% | 1017.3 hPa | 0 mm | - | 72 W/m² | - |
| 1787919637 | 23.89° C | 99% | 1017.3 hPa | 0 mm | - | 71 W/m² | - |
| 1787919034 | 23.89° C | 99% | 1017.2 hPa | 0 mm | - | 79 W/m² | - |
| 1787918434 | 23.33° C | 99% | 1017.3 hPa | 0 mm | - | 67 W/m² | - |
| 1787917833 | 23.33° C | 99% | 1017.3 hPa | 0 mm | - | 48 W/m² | - |
| 1787917231 | 22.78° C | 99% | 1017.5 hPa | 0 mm | - | 26 W/m² | - |
| 1787916631 | 22.78° C | 99% | 1017.2 hPa | 0 mm | - | 16 W/m² | - |
| 1787916027 | 22.78° C | 99% | 1017 hPa | 0 mm | - | 11 W/m² | - |
| 1787915423 | 22.78° C | 99% | 1016.8 hPa | 0 mm | - | 9 W/m² | - |
| 1787914823 | 22.78° C | 99% | 1016.9 hPa | 0 mm | - | 6 W/m² | - |
| 1787914222 | 22.78° C | 99% | 1016.7 hPa | 0 mm | - | 2 W/m² | - |
| 1787913626 | 22.78° C | 99% | 1016.7 hPa | 0 mm | - | 1 W/m² | - |
| 1787913022 | 22.78° C | 99% | 1016.4 hPa | 0 mm | - | 0 W/m² | - |
| 1787912421 | 22.78° C | 99% | 1016.3 hPa | 0 mm | - | 0 W/m² | - |
| 1787911821 | 22.78° C | 99% | 1016.2 hPa | 0.51 mm | - | 0 W/m² | - |
| 1787911220 | 22.78° C | 99% | 1015.9 hPa | 0 mm | - | 0 W/m² | - |
| 1787910619 | 22.78° C | 99% | 1016.1 hPa | 0.51 mm | - | 0 W/m² | - |
| 1787910015 | 22.78° C | 99% | 1016.2 hPa | 0 mm | - | 0 W/m² | - |
| 1787909412 | 22.78° C | 99% | 1016.2 hPa | 0 mm | - | 0 W/m² | - |
| 1787908808 | 23.33° C | 99% | 1016 hPa | 0 mm | - | 0 W/m² | - |
| 1787908201 | 23.33° C | 99% | 1016.1 hPa | 0 mm | - | 0 W/m² | - |
| 1787907597 | 23.33° C | 99% | 1015.8 hPa | 0 mm | - | 0 W/m² | - |
| 1787906992 | 23.33° C | 99% | 1015.7 hPa | 0 mm | - | 0 W/m² | - |
| 1787906390 | 23.33° C | 99% | 1015.5 hPa | 0 mm | - | 0 W/m² | - |
| 1787905785 | 23.33° C | 99% | 1015.7 hPa | 0 mm | - | 0 W/m² | - |
* Rain latest hour (hover to see other rain measurements)
** Current wind speed in m/s (hover to see current wind gust speed)